[Iaude] MPEC T88: 2023 BD10 [a=1.37,e=0.15,i=25.4,H=22.94]

mpec at marsden.cfa.harvard.edu mpec at marsden.cfa.harvard.edu
Sat Oct 7 09:21:08 EDT 2023


M.P.E.C. 2023-T88                               Issued 2023 October 7, 13:19 UT

     The Minor Planet Electronic Circulars contain information on unusual
         minor planets, routine data on comets and natural satellites,
         and occasional editorial announcements.  They are published
    on behalf of Division F of the International Astronomical Union by the
          Minor Planet Center, Smithsonian Astrophysical Observatory,
                          Cambridge, MA 02138, U.S.A.
			  
             Prepared using the Tamkin Foundation Computer Network

                              MPC at CFA.HARVARD.EDU
            URL https://www.minorplanetcenter.net/    ISSN 1523-6714

                                   2023 BD10                                    


                           Revision to MPEC 2023-C51                            

Additional Observations:
     K23B10D  C2015 01 25.43261 10 50 07.304+19 37 27.46         21.3 wLET088F51
     K23B10D  C2015 01 25.44451 10 50 04.297+19 36 23.22         21.2 wLET088F51
     K23B10D  C2015 01 25.46836 10 49 58.280+19 34 14.12         21.2 wLET088F51
     K23B10D ;C2015 02 23.25920 08 38 28.10 -25 36 58.2          21.8 gVET088W84
     K23B10D ;C2015 02 23.25980 08 38 27.97 -25 37 00.1          21.8 rVET088W84

Observer details:
F51 Pan-STARRS 1, Haleakala.  Observers B. Gibson, T. Goggia, N. Primak, A.
    Schultz, M. Willman.  Measurers K. Chambers, S. Chastel, L. Denneau, H.
    Flewelling, M. Huber, E. Magnier, E. Schunova, R. Wainscoat, C. Waters, R.
    Weryk.  1.8-m Ritchey-Chretien + CCD.
W84 Cerro Tololo-DECam.  Observer .  Measurer P. VanWylen.  4.0-m reflector +
    CCD.

First and last observations above in comparison with prediction:
Residuals in seconds of arc (or two decimals in degrees), reference and Delta-T
150125 F51 1.52- 2.15-    150223 W84 1.72- 1.75-    MPO736078   +0.00 days

Orbital elements:
2023 BD10                                                Earth MOID = 0.1840 AU
Epoch 2023 Sept. 13.0 TT = JDT 2460200.5                Veres                   
M 131.11045              (2000.0)            P               Q                  
n   0.61398739     Peri.  181.42291     -0.71907160     -0.62466202             
a   1.3709757      Node   314.69545     +0.64174804     -0.42875540             
e   0.1457316      Incl.   25.36528     +0.26663738     -0.65266084             
P   1.61           H   22.94          G   0.15           U   1                  
Residuals in seconds of arc
150125 F51  0.7-  0.6-    230131 V00  0.1-  0.7-    230207 J95  0.6+  0.1-
150125 F51  0.8-  0.6-    230131 V00  0.2+  0.8-    230207 J95  0.7-  0.9-
150125 F51  0.5-  0.6-    230131 H01  0.1-  0.5-    230208 I52  0.3+  0.4+
150223 W84  0.1+  0.2-    230131 H01  0.2-  0.6-    230208 I52  1.0-  0.6-
150223 W84  0.2+  0.2-    230131 587  0.1+  0.5-    230208 I52  0.0   0.0
230131 G96  0.2+  1.4-    230131 587  0.2-  0.7-    230211 G96  0.2+  0.1+
230131 G96  0.2+  0.5-    230131 204  0.2-  0.1-    230211 G96  0.0   0.6+
230131 G96  0.1-  0.4+    230131 204  0.5+  0.5-    230211 G96  0.6+  0.3+
230131 G96  0.0   0.1+    230131 J95  0.7-  0.5-    230211 G96  0.5-  0.4-
230131 734 (2.8+  2.7+)   230131 Z41  0.6-  0.0     230217 807  0.1+  0.3+
230131 734  1.4+  2.3+    230131 Z41  0.4-  0.7+    230217 807  1.0+  0.4-
230131 H01  0.1-  0.5-    230131 Z41  1.3-  0.1-    230217 807  0.3+  0.2+
230131 734  1.5+  1.9+    230131 J95  0.7-  0.2+    230223 807  0.3-  0.0
230131 V00  0.2-  0.6-    230201 H01  0.1+  0.4-    230223 807  0.0   0.0
230131 734  0.6+  1.3+    230201 H01  0.1-  0.6-    230223 807  0.1-  0.0
230131 V00  0.2-  0.7-    230201 H01  0.0   0.4-
230131 H01  0.2-  0.7-    230201 H01  0.2-  0.5-

Ephemeris:
2023 BD10                a,e,i = 1.37, 0.15, 25                  q = 1.1712
Date    TT    R. A. (2000) Decl.     Delta      r    Elong.  Phase     V
2023 09 07    15 18 53.2 -35 22 16   1.4431  1.5085    73.6    39.9    26.2
...
2023 09 22    16 08 39.5 -33 54 22   1.5722  1.5280    68.7    37.8    26.4
...
2023 09 30    16 34 09.1 -32 56 02   1.6425  1.5370    66.0    36.5    26.4
...
2023 10 06    16 52 46.9 -32 07 21   1.6956  1.5431    63.9    35.6    26.5
2023 10 07    16 55 50.8 -31 58 50   1.7045  1.5440    63.5    35.4    26.5
2023 10 08    16 58 54.1 -31 50 13   1.7133  1.5450    63.1    35.2    26.5
...
2023 10 14    17 16 59.8 -30 56 10   1.7662  1.5503    60.9    34.2    26.5
...
2023 10 22    17 40 31.6 -29 38 06   1.8360  1.5564    58.0    32.8    26.6
...
2023 11 06    18 22 52.5 -26 53 47   1.9622  1.5650    52.2    30.0    26.7

A. U. Tomatic                (C) Copyright 2023 MPC           M.P.E.C. 2023-T88





More information about the Iaude mailing list